Wind_Speed
32 32 31 31 32 32 32 32 32 31 30 29 28 28 28 30 32 32 31 30 29 28 27 27 26 26 25 23 22 21 20 18 18 19 19 18 18 17 16 15 13 12 11
34 34 34 34 34 34 33 33 32 32 31 30 30 29 29 30 31 33 33 32 31 30 29 28 28 28 27 26 25 24 22 21 20 20 21 21 21 20 18 17 16 14 13
36 35 35 35 35 36 35 34 34 33 32 32 31 30 31 30 31 33 33 33 33 32 30 28 28 28 29 28 27 25 24 23 23 23 22 22 23 22 21 20 19 17 16
37 37 36 36 36 36 36 36 36 35 34 33 32 31 32 32 32 33 33 33 34 33 31 29 28 29 29 29 28 27 26 25 25 24 24 23 24 24 24 23 22 20 19
38 38 37 37 37 37 37 37 37 36 35 34 33 31 30 30 32 33 33 33 34 34 32 31 30 30 29 29 28 28 28 27 26 25 25 24 25 25 26 26 25 23 22
39 39 39 38 38 37 37 37 37 36 36 35 33 31 30 29 31 32 33 32 33 34 33 32 31 30 30 29 29 29 28 28 27 26 26 25 26 27 27 28 27 27 25
38 38 39 39 38 38 38 37 37 36 36 34 32 31 31 31 30 32 34 33 34 35 34 33 32 32 32 30 30 30 29 29 27 27 26 26 26 27 28 28 28 28 28
36 36 37 37 37 37 37 37 37 36 35 35 33 30 30 30 31 32 33 35 35 35 35 35 34 33 33 32 31 31 31 30 29 28 28 27 27 26 27 29 30 30 29
33 33 34 35 35 35 35 35 35 35 34 34 33 30 29 29 28 31 33 34 34 35 35 35 34 33 33 32 32 32 31 30 29 29 28 28 28 26 25 26 27 28 30
33 33 32 32 32 32 33 33 33 33 33 32 32 31 30 29 28 28 30 32 33 33 34 35 34 33 33 33 32 32 31 31 29 29 29 29 29 27 26 26 26 26 28
34 33 32 30 30 30 30 30 30 30 31 31 31 30 30 29 29 29 30 31 32 32 33 34 34 34 34 34 34 34 32 31 30 29 29 29 29 27 26 26 25 25 25
36 35 34 33 31 30 30 30 30 29 29 29 30 30 30 31 30 30 30 32 32 32 32 33 35 34 35 34 35 35 33 32 31 29 28 28 27 27 26 25 24 24 24
38 38 38 37 35 33 32 31 31 31 30 29 30 30 30 31 32 33 32 32 32 33 33 33 34 36 35 35 36 35 34 33 32 30 29 27 27 26 25 24 23 23 23
40 40 40 39 38 36 34 33 33 32 32 32 31 31 31 31 33 34 34 33 33 34 34 34 35 36 37 37 38 37 37 35 33 32 31 29 27 26 24 23 22 22 22
40 41 40 40 39 38 37 36 35 34 34 34 34 34 34 33 33 33 35 35 35 36 36 36 36 37 38 39 39 39 38 36 35 34 32 30 28 26 25 23 22 21 21
40 40 40 40 40 39 39 38 38 38 37 37 37 37 37 37 36 36 35 36 37 37 38 39 38 39 41 41 42 41 40 38 37 36 34 32 30 27 25 24 22 20 20
40 40 40 40 40 40 40 40 40 40 40 40 40 40 40 41 40 40 39 38 38 39 38 39 40 40 41 43 44 44 42 41 39 37 36 33 30 28 26 24 22 21 20
40 40 40 40 40 40 41 42 42 43 43 43 44 44 44 44 44 44 44 42 41 41 41 40 40 41 41 44 46 46 45 43 42 40 38 35 32 29 27 24 23 21 19
40 40 39 39 40 41 42 43 44 45 46 46 46 47 47 48 48 47 47 47 45 44 44 43 41 43 43 45 46 48 47 46 45 42 40 37 33 31 28 25 23 21 19
40 39 39 40 41 42 43 44 46 47 47 48 48 48 49 50 51 51 50 50 50 48 47 48 46 45 45 46 47 49 49 48 47 45 43 39 35 32 30 27 25 22 20
40 39 39 40 41 42 44 45 46 48 49 50 51 51 51 52 53 55 55 54 53 52 50 49 50 48 48 48 48 49 50 50 50 48 45 42 38 35 32 29 26 24 21
39 39 40 40 41 41 43 44 45 46 47 48 50 52 53 53 54 56 58 58 57 56 55 53 53 51 50 50 49 50 51 52 51 50 48 45 41 38 35 31 28 25 22
39 39 39 39 40 41 42 43 43 43 44 45 46 48 49 51 52 56 59 61 61 60 58 56 55 54 53 52 51 51 52 53 53 53 51 48 45 41 38 34 30 27 24
39 39 38 39 39 40 40 40 40 40 41 41 42 44 45 47 49 52 57 61 63 63 62 60 58 57 56 54 54 53 53 55 56 56 54 51 48 45 41 37 33 30 26
39 38 38 39 39 38 38 38 38 38 38 38 38 40 42 44 46 50 54 58 62 64 65 64 61 60 59 57 56 55 55 55 57 56 55 53 50 48 44 41 37 33 29
38 38 38 38 37 37 36 36 35 34 34 33 33 35 37 40 43 47 51 55 59 63 66 66 65 63 62 60 59 57 55 55 56 57 55 54 53 51 47 44 40 36 32
Wind_Direction
291 291 289 286 285 284 282 282 282 283 284 280 274 269 267 262 252 247 244 241 238 239 241 242 240 239 238 238 239 238 237 237 234 231 229 228 228 227 225 225 224 223 224
289 288 286 285 283 282 281 280 280 279 281 281 279 273 267 265 258 249 243 239 237 237 240 240 239 239 238 238 238 238 237 236 235 232 232 231 230 228 227 226 225 223 222
289 288 286 284 282 281 279 278 278 278 280 281 281 275 268 266 261 252 243 238 235 235 237 239 238 237 236 236 236 236 237 237 234 234 233 232 230 229 227 227 226 225 224
290 288 286 283 281 280 279 278 277 278 279 280 280 276 268 265 260 251 243 237 234 233 235 237 233 233 234 233 232 234 236 235 232 232 234 234 231 229 228 227 226 226 226
289 287 285 283 281 280 279 278 279 279 280 280 278 275 269 264 256 250 243 238 235 232 233 234 234 233 231 231 231 232 233 231 230 231 233 234 232 230 228 226 226 226 227
287 286 284 282 281 279 278 277 277 278 279 279 276 273 268 262 254 248 241 237 235 232 231 233 233 231 230 229 229 230 230 228 228 230 232 233 233 231 229 228 228 229 229
285 284 282 281 280 279 277 276 275 275 276 277 275 272 267 259 253 245 239 237 235 232 232 231 231 231 228 227 228 228 227 226 227 228 229 229 230 230 229 229 229 230 232
285 282 281 280 279 278 276 275 274 273 274 273 271 270 265 258 252 246 242 238 235 232 232 231 231 230 228 228 227 225 224 225 227 227 228 228 228 229 229 229 230 232 233
288 285 283 281 279 277 275 273 272 271 270 270 267 266 263 258 253 247 243 237 233 232 232 231 229 229 227 224 224 222 222 223 225 225 225 225 224 225 226 226 227 230 232
293 290 287 284 281 277 274 272 271 270 268 266 264 262 260 256 251 246 239 236 232 231 231 230 228 225 223 221 221 219 220 221 221 222 221 222 221 222 225 225 227 229 230
295 293 291 287 283 279 275 273 270 268 266 264 261 258 254 252 248 244 240 236 233 231 230 227 224 221 219 218 218 217 217 218 219 218 218 218 218 220 221 222 224 225 227
295 293 291 288 284 279 275 272 270 266 264 262 259 255 251 247 244 242 240 237 233 230 228 225 223 220 218 217 217 215 214 215 215 214 214 213 214 214 215 217 220 222 224
295 293 291 288 284 279 275 271 269 266 262 259 257 254 251 248 244 240 236 233 232 229 227 224 223 220 218 216 215 214 214 213 212 211 210 209 208 209 211 213 216 218 220
295 292 290 287 284 280 274 270 266 263 261 259 256 254 251 248 245 241 236 233 230 229 228 225 221 218 217 215 215 214 213 211 210 209 207 206 206 207 208 211 213 215 218
294 291 288 286 283 280 276 271 267 263 261 259 256 253 250 248 246 244 238 233 229 227 226 223 219 217 215 215 214 213 212 210 209 208 206 205 205 206 208 210 212 215 218
294 291 287 284 281 278 276 272 268 264 262 259 256 254 251 248 246 244 240 235 231 228 225 222 221 218 214 214 214 212 211 210 208 207 205 204 205 205 207 210 212 215 218
295 292 288 284 280 277 275 272 269 266 263 260 257 255 252 249 245 243 241 237 232 228 225 222 219 217 214 213 213 212 210 209 207 205 204 204 204 204 207 210 211 213 217
297 294 290 286 282 279 276 274 271 268 266 263 259 255 252 249 246 243 240 238 234 229 225 221 218 216 214 213 213 211 210 209 207 206 205 204 204 206 208 209 210 213 217
300 296 292 288 285 282 279 276 274 271 269 265 262 258 253 249 245 242 238 237 235 231 226 222 218 214 214 212 212 212 210 209 208 206 205 205 206 207 208 209 211 214 216
303 299 295 291 288 285 281 279 276 274 271 267 263 259 254 249 244 240 237 235 234 231 227 223 218 215 213 212 211 212 210 209 208 207 206 206 207 208 208 210 211 213 216
305 301 297 294 291 288 285 282 279 276 273 269 265 260 254 249 244 239 236 233 232 231 228 224 220 217 214 211 210 211 210 210 209 208 208 208 208 208 209 210 212 214 216
307 304 301 298 296 293 290 287 283 280 275 271 266 260 255 249 244 239 234 232 230 229 228 225 221 218 216 214 211 210 209 209 209 208 209 209 209 210 210 212 213 215 219
310 308 305 302 300 297 294 291 287 282 278 272 267 261 255 249 243 238 233 230 227 226 226 224 221 218 216 214 213 210 209 209 209 209 209 209 209 211 212 214 216 218 222
314 312 309 305 303 301 297 293 289 285 281 274 267 260 253 247 241 236 231 227 224 224 223 222 221 218 217 215 214 212 210 209 209 210 209 210 210 212 213 215 218 220 224
317 315 312 309 307 304 300 296 291 287 282 276 268 259 251 244 238 233 228 224 221 220 220 219 219 218 216 216 214 212 211 211 210 211 211 211 212 213 214 216 219 222 225
320 318 316 313 310 308 305 300 294 290 285 276 267 257 248 240 233 229 225 221 219 218 217 217 217 217 216 216 215 213 213 211 210 211 211 212 213 214 216 217 220 223 226
Height
5863 5861 5859 5858 5856 5854 5853 5852 5850 5849 5848 5847 5847 5847 5848 5849 5850 5852 5854 5858 5861 5863 5866 5868 5871 5873 5876 5879 5881 5883 5885 5887 5889 5891 5894 5896 5897 5899 5901 5903 5905 5906 5908
5855 5853 5851 5850 5848 5846 5845 5844 5843 5842 5841 5840 5840 5839 5840 5841 5842 5844 5846 5849 5853 5856 5859 5862 5864 5867 5870 5873 5876 5879 5881 5883 5885 5887 5890 5892 5894 5896 5898 5900 5902 5904 5906
5847 5845 5843 5841 5839 5837 5836 5836 5835 5834 5834 5833 5832 5831 5831 5832 5833 5836 5838 5841 5845 5848 5852 5855 5858 5860 5864 5867 5870 5874 5876 5878 5881 5883 5885 5887 5890 5892 5895 5897 5900 5902 5904
5838 5836 5834 5832 5830 5829 5828 5827 5826 5826 5825 5825 5824 5823 5823 5823 5825 5827 5829 5833 5837 5840 5844 5847 5851 5854 5858 5861 5864 5868 5871 5873 5875 5878 5881 5883 5885 5888 5890 5893 5896 5899 5901
5829 5827 5825 5823 5821 5820 5819 5818 5817 5817 5816 5816 5815 5815 5815 5815 5817 5819 5821 5825 5829 5832 5836 5840 5844 5847 5851 5855 5858 5862 5865 5867 5870 5873 5876 5878 5880 5883 5885 5888 5892 5894 5897
5820 5817 5815 5813 5812 5811 5810 5809 5809 5808 5807 5807 5807 5807 5807 5807 5809 5811 5814 5817 5821 5825 5829 5833 5837 5840 5844 5848 5851 5855 5859 5862 5865 5868 5871 5873 5875 5878 5880 5883 5887 5890 5893
5810 5808 5805 5804 5802 5801 5801 5800 5799 5799 5798 5798 5798 5798 5799 5800 5801 5803 5806 5810 5814 5817 5822 5826 5830 5834 5837 5841 5845 5849 5853 5856 5859 5862 5865 5867 5870 5873 5875 5878 5881 5885 5888
5801 5798 5796 5794 5793 5792 5791 5790 5789 5789 5789 5789 5789 5790 5791 5793 5794 5796 5799 5802 5806 5810 5814 5818 5822 5826 5830 5835 5839 5842 5846 5850 5853 5856 5859 5862 5864 5867 5870 5873 5876 5879 5882
5790 5788 5786 5784 5783 5782 5781 5780 5780 5780 5780 5780 5780 5781 5783 5784 5786 5789 5791 5794 5798 5802 5806 5810 5814 5819 5823 5827 5831 5836 5840 5844 5847 5850 5854 5856 5859 5862 5864 5867 5870 5873 5876
5780 5778 5776 5775 5773 5772 5771 5770 5770 5770 5770 5771 5771 5772 5774 5776 5778 5781 5784 5787 5790 5794 5798 5802 5807 5811 5815 5820 5824 5829 5833 5838 5841 5844 5847 5850 5854 5857 5859 5862 5865 5867 5870
5770 5768 5766 5765 5763 5762 5761 5761 5761 5760 5761 5761 5762 5764 5766 5768 5770 5773 5776 5779 5783 5786 5790 5794 5799 5803 5808 5813 5818 5822 5827 5831 5835 5839 5842 5845 5848 5851 5854 5857 5860 5862 5865
5761 5758 5756 5755 5753 5752 5751 5751 5751 5751 5752 5752 5753 5755 5757 5759 5761 5764 5767 5771 5774 5778 5782 5786 5791 5796 5801 5806 5811 5816 5821 5825 5829 5833 5836 5840 5843 5846 5849 5853 5855 5858 5860
5751 5748 5745 5744 5743 5742 5741 5741 5741 5742 5743 5744 5744 5746 5748 5750 5752 5755 5759 5762 5766 5770 5774 5779 5783 5788 5793 5798 5804 5809 5814 5819 5823 5827 5831 5835 5839 5842 5845 5848 5851 5854 5856
5741 5737 5734 5732 5731 5730 5730 5730 5731 5731 5732 5734 5735 5737 5738 5740 5743 5746 5749 5753 5757 5762 5766 5771 5776 5781 5786 5791 5797 5802 5808 5812 5817 5822 5826 5830 5834 5837 5841 5844 5847 5850 5852
5730 5726 5723 5720 5719 5718 5718 5718 5719 5720 5721 5723 5724 5726 5729 5731 5733 5736 5739 5743 5748 5752 5758 5763 5768 5773 5778 5783 5789 5795 5800 5806 5811 5816 5821 5825 5829 5833 5837 5840 5843 5845 5848
5718 5714 5711 5708 5706 5705 5705 5705 5706 5707 5709 5710 5712 5715 5717 5720 5723 5726 5729 5733 5737 5742 5747 5753 5759 5763 5769 5775 5781 5787 5793 5799 5805 5810 5815 5820 5825 5828 5832 5836 5839 5841 5844
5706 5702 5699 5696 5694 5692 5691 5691 5692 5693 5695 5697 5699 5702 5704 5708 5711 5715 5718 5722 5726 5732 5737 5742 5749 5754 5760 5766 5773 5779 5785 5792 5798 5804 5809 5815 5820 5824 5828 5831 5834 5837 5839
5694 5690 5686 5683 5681 5679 5678 5677 5677 5678 5679 5681 5684 5687 5690 5693 5698 5702 5706 5711 5715 5720 5727 5732 5738 5745 5751 5757 5764 5771 5777 5784 5791 5797 5803 5809 5814 5819 5823 5826 5830 5833 5835
5682 5678 5674 5670 5668 5665 5663 5662 5661 5662 5663 5664 5666 5669 5673 5677 5682 5687 5693 5698 5703 5709 5715 5721 5727 5734 5741 5747 5755 5762 5769 5776 5783 5790 5797 5803 5808 5813 5818 5822 5826 5829 5831
5671 5666 5661 5658 5654 5651 5649 5647 5645 5645 5645 5646 5648 5651 5655 5659 5665 5670 5677 5683 5690 5696 5703 5710 5716 5723 5730 5737 5744 5752 5760 5768 5776 5783 5790 5796 5802 5808 5812 5817 5821 5824 5826
5660 5654 5649 5645 5641 5637 5634 5631 5629 5627 5626 5626 5628 5630 5634 5639 5645 5652 5660 5667 5675 5682 5690 5697 5705 5711 5719 5726 5734 5742 5751 5759 5767 5775 5782 5790 5796 5801 5807 5812 5816 5819 5822
5649 5643 5637 5632 5627 5622 5618 5614 5611 5609 5607 5606 5607 5609 5612 5618 5625 5632 5640 5649 5658 5667 5676 5684 5692 5700 5708 5716 5724 5732 5741 5750 5759 5767 5775 5782 5789 5795 5801 5806 5810 5814 5817
5638 5631 5625 5619 5614 5608 5603 5598 5594 5591 5589 5587 5587 5588 5591 5597 5603 5611 5620 5629 5640 5650 5660 5670 5679 5688 5696 5706 5714 5722 5731 5740 5749 5757 5765 5773 5781 5788 5794 5799 5804 5808 5811
5627 5620 5613 5607 5601 5594 5588 5583 5578 5575 5572 5569 5568 5569 5572 5577 5583 5591 5600 5610 5621 5633 5645 5656 5666 5675 5683 5693 5702 5712 5720 5729 5737 5746 5756 5765 5773 5780 5786 5792 5798 5802 5805
5617 5609 5602 5595 5588 5582 5575 5569 5564 5560 5556 5553 5552 5552 5555 5559 5565 5573 5582 5593 5604 5615 5626 5639 5650 5660 5671 5681 5690 5700 5709 5719 5728 5738 5748 5757 5765 5772 5778 5785 5790 5795 5799
5607 5599 5592 5584 5577 5570 5563 5556 5550 5545 5541 5538 5536 5537 5539 5543 5549 5556 5565 5576 5587 5598 5610 5623 5635 5647 5658 5668 5678 5689 5700 5710 5719 5729 5739 5748 5756 5763 5771 5777 5783 5788 5792